This is the latest recevied weather packets stored in our database for station/object F5ZQC-13. If no packets are shown the sender has not sent any weather packets the latest 10 day(s).
| Time | Temp. | Humidity | Pressure | Rain* | Wind** | Luminosity | Snow |
|---|---|---|---|---|---|---|---|
| 1787767696 | 31.11° C | 6% | 1006.8 hPa | 0 mm | - | - | - |
| 1787767485 | 31.11° C | 6% | 1006.9 hPa | 0 mm | - | - | - |
| 1787767357 | 31.67° C | 6% | 1007.1 hPa | 0 mm | - | - | - |
| 1787767235 | 31.67° C | 6% | 1006.9 hPa | 0 mm | - | - | - |
| 1787767050 | 31.67° C | 5% | 1007.2 hPa | 0 mm | - | - | - |
| 1787766571 | 31.67° C | 5% | 1007 hPa | 0 mm | - | - | - |
| 1787765538 | 32.22° C | 4% | 1006.8 hPa | 0 mm | - | - | - |
| 1787765055 | 32.78° C | 3% | 1006.9 hPa | 0 mm | - | - | - |
| 1787764918 | 33.33° C | 3% | 1006.7 hPa | 0 mm | - | - | - |
| 1787764856 | 33.33° C | 3% | 1006.6 hPa | 0 mm | - | - | - |
| 1787764099 | 33.89° C | 2% | 1006.7 hPa | 0 mm | - | - | - |
| 1787763855 | 33.89° C | 2% | 1006.6 hPa | 0 mm | - | - | - |
| 1787763733 | 33.89° C | 2% | 1006.5 hPa | 0 mm | - | - | - |
| 1787763488 | 34.44° C | 2% | 1006.5 hPa | 0 mm | - | - | - |
| 1787763245 | 35° C | 2% | 1006.5 hPa | 0 mm | - | - | - |
| 1787763128 | 35° C | 1% | 1006.5 hPa | 0 mm | - | - | - |
| 1787762947 | 35° C | 1% | 1006.4 hPa | 0 mm | - | - | - |
| 1787762554 | 35.56° C | 100% | 1006.5 hPa | 0 mm | - | - | - |
| 1787762191 | 36.11° C | 1% | 1006.4 hPa | 0 mm | - | - | - |
| 1787761932 | 36.11° C | 100% | 1006.3 hPa | 0 mm | - | - | - |
| 1787761502 | 36.67° C | 15% | 1006.3 hPa | 0 mm | - | - | - |
| 1787761318 | 36.67° C | 15% | 1006.2 hPa | 0 mm | - | - | - |
| 1787761256 | 36.67° C | 1% | 1006.4 hPa | 0 mm | - | - | - |
| 1787761021 | 36.67° C | 100% | 1006.3 hPa | 0 mm | - | - | - |
| 1787760900 | 36.67° C | 100% | 1006.4 hPa | 0 mm | - | - | - |
* Rain since midnight (hover to see other rain measurements)
** Current wind speed in m/s (hover to see current wind gust speed)